Location: Antipolo
(14.5886°N, 121.1757°E)
Time: 14:45:07
(UTC+00:00)

Daily predictions for brighter satellites

Satellite Brightness Start Highest point End
(mag) Time Altitude Azimuth Time Altitude Azimuth Time Altitude Azimuth
Cosmos 1300 2.8 12:02:44 10° N 12:06:05 59° NE 12:06:05 59° NE
Cosmos 2333 Rocket 3.7 12:10:05 21° ENE 12:10:05 21° ENE 12:12:15 10° NE
SL-08 R/B 4.4 12:03:00 15° S 12:08:22 81° E 12:14:37 10° N
Cosmos 2263 Rocket 2.6 12:06:23 10° N 12:11:33 40° ENE 12:11:41 40° ENE
Cosmos 1602 Rocket 3.5 12:14:00 61° SSW 12:14:45 85° W 12:19:09 10° N
Cosmos 372 Rocket 3.9 12:13:37 10° N 12:18:49 67° ENE 12:19:05 65° E
ARGOS 4.1 12:15:05 17° SSW 12:18:54 45° W 12:24:04 10° NNW
USA 215 3.9 12:14:08 10° NNE 12:20:28 56° NW 12:26:48 10° SW
MetOp-A 4.0 12:23:28 64° SSE 12:24:19 88° ENE 12:29:41 10° NNW
Centaur D-1A AC-32 3.8 12:23:39 10° W 12:27:59 24° SW 12:27:59 24° SW
GPS 2-15 Rocket1 3.7 12:25:10 10° WNW 12:30:00 53° N 12:30:10 53° NNE
Cosmos 1356 Rocket 4.2 12:29:09 10° NNW 12:32:52 50° WNW 12:32:52 50° WNW
ATLAS 5 CENTAUR R/B 4.4 12:32:21 10° W 12:34:41 15° WNW 12:37:03 10° NNW
Resurs 01 Rocket 3.1 12:37:51 28° NNE 12:37:51 28° NNE 12:40:04 10° N
Cosmos 1745 Rocket 4.0 12:37:20 47° SSW 12:39:11 76° W 12:45:22 10° N
Cosmos 2150 Rocket 4.4 12:43:01 10° NNW 12:47:14 59° NNW 12:47:14 59° NNW
BREEZE-M DEB (TANK) 3.6 12:43:57 10° NNW 12:47:41 48° NNW 12:47:41 48° NNW
Hubble Space Telescope 2.9 12:45:14 10° W 12:46:54 22° W 12:46:54 22° W
Palapa B4 Rocket 4.4 12:55:31 10° WSW 13:01:28 52° W 13:01:28 52° W
COSMOS 2428 4.4 13:27:57 28° NNW 13:27:57 28° NNW 13:30:46 10° N
CZ-3A R/B 4.1 13:17:23 10° WSW 13:26:03 34° SW 13:26:03 34° SW
Milstar 3 Cent rocket 4.3 13:31:11 10° W 13:32:54 21° WSW 13:32:54 21° WSW
Cosmos 2219 Rocket 4.2 13:44:18 23° NW 13:44:18 23° NW 13:47:21 10° NNW
Atlas Centaur 2 4.5 13:43:15 10° NW 13:48:14 22° N 13:48:32 22° NNE
Cosmos 2333 Rocket 4.4 13:51:57 20° WNW 13:51:57 20° WNW 13:55:28 10° NNW
Cosmos 1833 Rocket 4.4 18:25:19 28° NE 18:25:19 28° NE 18:28:06 10° NNE
CZ-4C R/B 3.5 18:24:28 10° NNW 18:30:20 53° NNW 18:30:20 53° NNW
ARIANE 5 R/B 4.3 18:56:44 14° ESE 18:56:44 14° ESE 18:57:51 10° ESE
H-2A R/B 4.5 18:57:29 17° ESE 18:59:12 21° ENE 19:02:34 10° NNE
BREEZE-M DEB (TANK) 4.3 19:02:37 47° SSE 19:02:37 47° SSE 19:13:07 10° SE
MSX 4.1 18:56:19 10° NNE 19:01:37 61° E 19:01:37 61° E
Meteor 2-4 Rocket 3.8 19:05:52 10° N 19:11:31 79° NE 19:11:31 79° NE
GPS 2-14 Rocket1 4.4 19:17:17 33° ENE 19:17:17 33° ENE 19:19:41 10° ENE
Cosmos 1743 4.4 19:19:57 31° ENE 19:19:57 31° ENE 19:22:41 10° NNE
Palapa B4 Rocket 4.3 19:21:56 40° SE 19:21:56 40° SE 19:26:04 10° ESE
PSLV R/B 4.0 19:23:05 10° NNE 19:27:00 59° ENE 19:27:00 59° ENE
GPS 2-12 Rocket1 3.9 19:27:48 44° N 19:27:50 44° N 19:32:07 10° ENE
PAYLOAD A 4.5 19:22:38 10° NNE 19:27:56 61° ESE 19:29:21 45° SSE
Hubble Space Telescope 1.5 19:36:10 47° N 19:36:31 48° NNE 19:40:31 10° E
CZ-2C R/B 2.3 19:39:14 10° NNE 19:43:58 75° ESE 19:45:08 50° S
Cosmos 2082 Rocket 2.5 19:44:08 46° W 19:44:21 46° WNW 19:49:49 10° N
ERS-2 2.9 19:47:29 43° NNW 19:47:29 43° NNW 19:50:01 10° NNW
SWIFT 3.5 19:46:52 31° NNW 19:47:56 36° N 19:51:52 10° ENE
Cosmos 1850 Rocket 3.9 19:47:15 46° S 19:48:54 88° E 19:54:14 10° NNE
Cosmos 1891 Rocket 4.4 19:46:14 27° S 19:49:49 85° E 19:56:03 10° N
IDEFIX/ARIANE 42P 4.1 19:48:59 10° NNW 19:51:43 20° WNW 19:51:43 20° WNW
Cosmos 1908 Rocket 3.4 19:52:20 63° SSW 19:52:58 76° W 19:57:25 10° N
Cosmos 1674 Rocket 4.0 19:49:47 10° N 19:54:02 58° E 19:57:54 12° SSE
ARIANE R/B 4.4 19:58:31 25° S 19:58:31 25° S 20:01:12 10° SE
CBERS 1 LM4 rocket 4.4 19:53:34 10° N 19:58:10 56° WNW 19:59:06 47° WSW
Cosmos 1513 Rocket 4.3 19:57:07 25° S 20:00:45 77° W 20:06:51 10° N
Cosmos 1741 Rocket 3.9 19:59:37 39° SSW 20:01:30 70° WNW 20:06:40 10° N
ADEOS 3.5 19:56:16 10° NNE 20:01:30 90° ESE 20:04:41 24° SSW
CZ-4C R/B 4.4 20:05:55 24° NW 20:05:55 24° NW 20:07:31 10° NNW
CZ-3B R/B 3.0 20:00:49 24° W 20:05:36 49° NNW 20:09:07 10° NE
Meteor 2-9 Rocket 4.3 20:06:26 10° S 20:11:49 71° E 20:17:06 10° NNE
Cosmos 1975 2.7 20:11:51 26° S 20:14:03 82° W 20:18:03 10° N
USA 238 DEB 3.8 20:09:06 17° SSW 20:14:16 73° ESE 20:20:52 10° NNE
USA 238 3.8 20:09:10 17° SSW 20:14:21 72° ESE 20:20:57 10° NNE
SL-27 R/B 3.5 20:14:34 13° S 20:17:30 44° E 20:20:55 10° NNE
Cosmos 1066 Rocket 4.2 20:14:36 10° NNW 20:20:26 70° W 20:26:12 10° S
ALOS 2.9 20:17:31 10° NNE 20:22:06 57° E 20:26:40 10° S
Orbus 7S? 3.7 20:15:16 10° NNW 20:22:27 88° NE 20:25:45 10° SSE
Cosmos 1242 Rocket 3.0 20:27:49 10° N 20:31:13 59° E 20:34:38 10° SSE
IUS-13 SRM-1 3.0 20:31:57 18° SSW 20:33:38 26° SSE 20:35:31 10° E
H-2A R/B 3.5 20:34:35 19° WSW 20:34:55 19° W 20:38:07 10° NW
CZ-4B R/B 3.1 20:34:45 10° NNE 20:38:50 77° ESE 20:43:08 10° S
Cosmos 1975 Rocket 4.4 20:35:28 10° NNE 20:39:40 43° E 20:43:54 10° SSE
Nadezhda 4 Rocket 4.5 20:37:08 10° N 20:43:25 67° E 20:49:40 10° SSE
Cosmos 1271 Rocket 3.9 20:40:11 10° N 20:43:47 44° E 20:47:20 10° SSE
CZ-3 R/B 3.5 20:06:51 10° WNW 20:43:53 88° NNE 20:51:56 10° ESE
FENGYUN 3A 3.6 20:38:28 10° N 20:43:53 77° WNW 20:49:16 10° SSW
CZ-3A R/B 3.2 20:44:44 10° WNW 20:49:07 75° NNE 21:07:02 10° ESE
Fermi 4.3 20:46:25 14° SW 20:49:46 50° SSE 20:53:48 10° E
CZ-4B R/B 1.8 20:46:43 10° S 20:49:50 39° W 20:53:03 10° NNW
Meteor 1-31 Rocket 3.5 20:49:08 10° N 20:52:44 35° WNW 20:56:20 10° SW
Intercosmos 25 Rocket 4.4 20:48:23 10° N 20:53:00 89° ENE 21:00:50 10° S
CENTAUR R/B 2.3 20:49:20 10° SSW 20:54:33 78° ESE 21:00:25 10° NNE
DEBRIS 3.8 20:47:15 10° SSW 20:54:55 50° SE 20:57:40 10° ENE
Cosmos 2369 3.7 20:49:39 10° NNW 20:55:23 86° WSW 21:01:06 10° SSE
Cosmos 1634 Rocket 4.2 20:49:23 10° S 20:55:41 83° E 21:02:00 10° N
GPS 2-14 Rocket1 4.0 20:52:51 10° WNW 20:56:42 36° N 21:00:34 10° ENE
Cosmos 1378 4.2 20:55:44 10° NW 20:58:52 26° W 21:02:02 10° SSW
Cosmos 1656 4.4 20:55:16 10° NW 20:59:55 29° WSW 21:04:36 10° SSW
Cosmos 192 4.3 20:57:27 10° NNW 21:02:17 65° WSW 21:07:07 10° S
Sich 1 Rocket 4.5 20:59:00 10° SSW 21:03:03 31° W 21:07:06 10° NNW
Cosmos 1484 Rocket 4.2 21:06:11 10° NNW 21:09:07 21° WNW 21:12:00 10° SW
GPS 2-12 Rocket1 3.1 21:06:59 10° WNW 21:11:28 78° NNE 21:15:54 10° E
DELTA 2 R/B (1) 3.7 21:06:24 10° WNW 21:11:51 54° SW 21:17:17 10° SE
ARIANE 5 R/B 4.4 21:31:34 10° W 21:50:01 32° SSW 21:54:08 10° SE
